ESTRELA DU SOL-TELSTAR14

导读

**ESTRELA DU SOL-TELSTAR14卫星**,于2004年1月11日发射,由AZ负责发射任务,是一颗商用通信卫星,服务覆盖美洲及大西洋区域,为该地区提供卫星通信传输服务。后续因业务迭代,其运营商Telesat推出替代卫星Telstar 14R,以增加容量、优化覆盖,保障通信服务的连续性。该卫星在商业卫星通信网络中曾承担重要的区域通信保障任务。

基本信息
目录编号:
28137
目录名称:
ESTRELA DU SOL-TELSTAR14
国际标识:
2004-001A
轨道中心:
EARTH
卫星名称:
ESTRELA DU SOL-TELSTAR14
卫星全名:
--
卫星状态:
在轨 (已飞行8220 天)
发射日期:
2004-01-11 UTC
国别 :
(USBZ)
星等 :
--
轨道信息
数据来源 国际轨道数据 AOE轨道数据
星历时间 2026-07-14T01:53:34+0800
12小时前
查看轨道信息
2026-07-13T14:00:00+0800
1天前
查看轨道信息
半长轴 42573.277km 42573.421km
偏心率 0.0004948 0.0005068
轨道倾角 11.135° 11.134°
近地点辐角 33.711° 31.916°
升交点赤经 44.334° 44.341°
平近点角 334.233° 159.708°
近地点 36174.074km 36173.707km
远地点 36216.206km 36216.861km
周期 1457.019分钟 1457.027分钟
每日圈数 0.988319 0.988314
详细信息
使用方式:
暂无
2D轨道图
3D轨道图
轨道高度分析图
轨道倾角分析图
轨道综合分析图
查看轨道综合分析图